Location: Zilina
(0.0000°N, 18.7333°E)
Time: 09:33:06
(UTC+01:00)

CZ-2D R/B - Pass Details

Date: 19 February 2019
Orbit: 523 x 538 km, 97.4° (Epoch: 21 March)

Event Time Altitude Azimuth Distance (km) Brightness Sun altitude
Rises 19:24:21 0° 175° (S) 2,667 6.9 -20.9°
Reaches altitude 10° 19:26:29 10° 179° (S) 1,773 6.0 -21.5°
Maximum altitude 19:30:15 60° 258° (WSW) 607 3.7 -22.4°
Drops below altitude 10° 19:33:59 10° 339° (NNW) 1,756 6.0 -23.3°
Sets 19:36:06 0° 343° (NNW) 2,640 6.9 -23.8°
